Tracking 34305 objects as of 6-Jun-2026
HD Live streaming from Space Station
objects crossing your sky now

STARLINK-11499

Track STARLINK-11499 now!
10-day predictions
STARLINK-11499 is classified as:


NORAD ID: 62279
Int'l Code: 2024-237N
Perigee: 362.5 km
Apogee: 364.7 km
Inclination: 43.0 °
Period: 91.7 minutes
Semi major axis: 6734 km
RCS: Unknown
Launch date: December 8, 2024
Source: United States (US)
Launch site: AIR FORCE EASTERN TEST RANGE (AFETR)
Your satellite tracking list
Your tracking list is empty




NASA's NSSDC Master Catalog

Two Line Element Set (TLE):
1 62279U 24237N   26156.68022094  .00100300  00000-0  77550-3 0  9996
2 62279  43.0002 246.8775 0001593 276.2661  83.8025 15.70847719 86812
Source of the keplerian elements: AFSPC